Probability
81 77 97 90 84 77 68 52 39 26 6 0 0 6 13 3 3 3 6 6 13 6 10 3 0 0 0 0 0 0 0 0 0 0 0 0 0 0 0 0 0 0 0
77 74 100 94 90 81 65 48 26 23 16 6 3 6 13 3 0 0 0 0 0 3 0 0 0 0 0 0 0 0 0 0 0 0 0 0 0 0 0 0 0 0 0
74 65 94 97 90 84 65 35 23 23 10 10 6 10 13 0 0 0 0 0 3 0 0 0 0 0 0 0 0 0 0 0 0 0 0 0 0 0 0 0 0 0 0
65 45 77 100 94 84 58 32 23 13 13 16 19 13 6 0 0 0 0 0 0 0 0 0 0 0 0 0 0 0 0 0 0 0 0 0 0 0 0 0 0 0 0
58 48 90 97 90 81 48 35 23 16 23 19 19 19 10 3 0 0 0 0 0 0 0 0 0 0 0 0 0 0 0 0 0 0 0 0 0 0 0 0 0 0 0
77 74 90 97 90 81 48 32 29 26 19 16 19 16 10 3 0 0 0 0 0 0 0 0 0 0 0 0 0 0 0 0 0 0 0 0 0 0 0 0 0 0 0
87 81 90 94 90 71 35 35 39 29 23 26 26 23 10 6 3 0 0 0 0 0 0 0 0 0 0 0 0 0 0 0 0 0 0 0 0 0 0 0 0 0 0
94 84 94 94 90 77 52 39 35 29 23 29 26 23 13 6 0 0 0 0 0 0 0 0 0 0 0 0 0 0 0 0 0 0 0 0 0 0 0 0 0 0 0
90 77 84 81 61 58 42 35 35 29 35 29 23 16 10 3 0 0 0 0 0 0 0 0 0 0 0 0 0 0 0 0 0 0 0 0 0 0 0 0 0 0 0
84 81 71 58 42 19 10 6 6 10 26 13 3 0 0 0 0 0 0 0 0 0 0 0 0 0 0 0 0 0 0 0 0 0 0 0 0 0 0 0 0 0 0
77 71 68 52 39 10 6 0 0 0 0 0 0 0 0 0 0 0 0 0 0 0 0 0 0 0 0 0 0 0 0 0 0 0 0 0 0 0 0 0 0 0 0
74 74 68 65 32 16 3 0 0 0 0 0 0 0 0 0 0 0 0 0 0 0 0 0 0 0 0 0 0 0 0 0 0 0 0 0 0 0 0 0 0 0 0
68 74 77 68 45 19 3 0 0 0 0 0 0 0 0 0 0 0 0 0 0 0 0 0 0 0 0 0 0 0 0 0 0 0 0 0 0 0 0 0 0 0 0
68 74 77 61 52 16 10 3 3 0 0 0 0 0 0 0 0 0 0 0 0 0 0 0 0 0 0 0 0 0 0 0 0 0 0 0 0 0 0 0 0 0 0
71 87 71 52 48 29 13 3 0 0 0 0 0 0 0 0 0 0 0 0 0 0 0 0 0 0 0 0 0 0 0 0 0 0 0 0 0 0 0 0 0 0 0
52 74 65 58 39 32 19 13 3 0 0 0 0 0 0 0 0 0 0 0 0 0 0 0 0 0 0 0 0 0 0 0 0 0 0 0 0 0 0 0 0 0 0
48 52 52 48 55 39 29 19 6 3 0 0 0 0 0 0 0 0 0 0 0 0 0 0 0 0 0 0 0 0 0 0 0 0 0 0 0 0 0 0 0 0 0
48 42 45 45 32 23 29 19 3 3 0 0 0 0 0 0 0 0 0 0 0 0 0 0 0 0 0 0 0 0 0 0 0 0 0 0 0 0 0 0 0 0 0
29 48 52 39 32 29 16 13 3 3 0 0 0 0 0 0 0 0 0 0 0 0 0 0 0 0 0 0 0 0 0 0 0 0 0 0 0 0 0 0 0 0 0
26 42 45 42 35 32 23 13 13 6 3 0 0 0 0 0 0 0 0 0 0 0 0 0 0 0 0 0 0 0 0 0 0 0 0 0 0 0 0 0 0 0 0
19 29 42 35 35 29 19 19 16 13 6 3 0 0 0 0 0 0 0 0 0 0 0 0 0 0 0 0 0 0 0 0 0 0 0 0 0 0 0 0 0 0 0
10 19 26 29 35 35 32 23 16 13 13 6 6 3 0 0 0 0 0 0 0 0 0 0 0 0 0 0 0 0 0 0 0 0 0 0 0 0 0 0 0 0 0
3 13 19 19 32 32 32 23 16 10 6 6 6 3 3 3 0 0 0 0 0 0 0 0 0 0 0 0 0 0 0 0 0 0 0 0 0 0 0 0 0 0 0
3 10 13 19 23 23 26 23 16 6 6 6 6 3 3 3 0 0 0 0 0 0 0 0 0 0 0 0 0 0 0 0 0 0 0 0 0 0 0 0 0 0 0
0 6 10 10 10 10 16 16 13 10 3 0 3 3 3 0 0 0 0 0 0 0 0 0 0 0 0 0 0 0 0 0 0 0 0 0 0 0 0 0 0 0 0
3 3 3 6 10 10 10 10 10 10 6 0 0 0 0 0 0 0 0 0 0 0 0 0 0 0 0 0 0 0 0 0 0 0 0 0 0 0 0 0 0 0 0
Height
5879 5881 5882 5884 5885 5887 5888 5889 5890 5891 5892 5893 5893 5894 5894 5894 5894 5894 5894 5894 5894 5894 5893 5893 5893 5892 5892 5891 5890 5890 5889 5888 5888 5887 5886 5885 5884 5883 5882 5880 5879 5877 5876
5877 5879 5881 5883 5884 5886 5887 5888 5889 5890 5891 5892 5892 5893 5893 5894 5894 5894 5894 5894 5893 5893 5893 5893 5892 5892 5891 5891 5890 5889 5889 5888 5887 5887 5886 5885 5883 5882 5881 5879 5878 5876 5875
5875 5877 5879 5881 5883 5884 5886 5887 5888 5889 5890 5891 5891 5892 5893 5893 5893 5893 5893 5893 5893 5892 5892 5892 5892 5891 5891 5890 5890 5889 5888 5888 5887 5886 5885 5884 5883 5881 5880 5878 5877 5875 5873
5872 5875 5877 5879 5881 5882 5884 5885 5887 5888 5889 5890 5891 5891 5892 5892 5893 5893 5893 5892 5892 5892 5892 5891 5891 5891 5890 5890 5889 5888 5888 5887 5886 5885 5884 5883 5882 5880 5879 5877 5875 5874 5872
5870 5873 5875 5877 5879 5880 5882 5884 5885 5886 5888 5889 5889 5890 5891 5891 5892 5892 5892 5892 5891 5891 5891 5891 5890 5890 5889 5889 5888 5888 5887 5886 5885 5884 5883 5882 5881 5879 5877 5876 5874 5872 5870
5867 5870 5872 5874 5876 5878 5880 5882 5883 5885 5886 5887 5888 5889 5889 5890 5890 5891 5891 5891 5891 5890 5890 5890 5889 5889 5888 5888 5887 5887 5886 5885 5884 5883 5882 5881 5879 5878 5876 5874 5872 5870 5868
5864 5867 5870 5872 5874 5876 5878 5879 5881 5883 5884 5885 5886 5887 5888 5888 5889 5889 5889 5889 5889 5889 5889 5888 5888 5888 5887 5887 5886 5886 5885 5884 5883 5882 5880 5879 5878 5876 5874 5872 5870 5868 5866
5861 5864 5867 5869 5871 5873 5875 5877 5879 5880 5882 5883 5884 5885 5886 5887 5887 5888 5888 5888 5888 5888 5887 5887 5887 5886 5886 5885 5885 5884 5883 5882 5881 5880 5879 5877 5876 5874 5872 5870 5868 5866 5864
5857 5861 5864 5866 5869 5871 5873 5874 5876 5878 5879 5881 5882 5883 5884 5885 5885 5886 5886 5886 5886 5886 5886 5885 5885 5885 5884 5884 5883 5882 5882 5881 5879 5878 5877 5875 5873 5872 5870 5868 5865 5863 5861
5853 5857 5861 5863 5866 5868 5870 5872 5874 5875 5877 5878 5880 5881 5882 5883 5883 5884 5884 5884 5884 5884 5884 5883 5883 5883 5882 5882 5881 5880 5879 5878 5877 5876 5874 5873 5871 5869 5867 5865 5862 5860 5858
5849 5853 5857 5860 5863 5865 5867 5869 5871 5873 5874 5876 5877 5878 5879 5880 5881 5881 5882 5882 5882 5882 5882 5881 5881 5881 5880 5880 5879 5878 5877 5876 5875 5873 5871 5870 5868 5866 5864 5861 5859 5857 5854
5845 5849 5853 5856 5859 5862 5864 5866 5868 5870 5871 5873 5874 5876 5877 5878 5878 5879 5879 5879 5879 5879 5879 5879 5879 5878 5878 5877 5876 5875 5874 5873 5872 5870 5868 5867 5865 5862 5860 5858 5855 5853 5850
5840 5844 5848 5852 5855 5858 5860 5863 5865 5867 5868 5870 5871 5873 5874 5875 5876 5876 5877 5877 5877 5877 5876 5876 5876 5875 5875 5874 5873 5872 5871 5870 5869 5867 5865 5863 5861 5859 5856 5854 5851 5848 5846
5836 5840 5844 5848 5851 5854 5857 5859 5861 5863 5865 5867 5868 5870 5871 5872 5873 5873 5874 5874 5874 5874 5873 5873 5873 5872 5872 5871 5870 5869 5868 5866 5865 5863 5861 5859 5857 5854 5852 5849 5847 5844 5841
5831 5835 5839 5843 5847 5850 5852 5855 5857 5859 5861 5863 5865 5866 5867 5868 5869 5870 5870 5870 5870 5870 5870 5870 5869 5869 5868 5867 5866 5865 5864 5862 5861 5859 5857 5855 5852 5850 5847 5844 5842 5839 5836
5826 5830 5834 5838 5842 5845 5848 5850 5852 5855 5857 5859 5860 5862 5863 5864 5865 5865 5866 5866 5866 5866 5866 5866 5865 5865 5864 5863 5862 5861 5859 5858 5856 5854 5852 5850 5847 5844 5842 5839 5836 5833 5830
5821 5825 5829 5833 5836 5840 5843 5845 5847 5850 5852 5854 5855 5857 5858 5859 5860 5861 5862 5862 5862 5862 5862 5861 5861 5860 5859 5858 5857 5856 5855 5853 5851 5849 5847 5845 5842 5839 5836 5833 5830 5827 5824
5815 5820 5823 5827 5831 5834 5837 5840 5842 5844 5846 5848 5850 5851 5852 5854 5855 5856 5856 5857 5857 5857 5856 5856 5855 5855 5854 5853 5852 5851 5849 5847 5845 5843 5840 5838 5836 5833 5830 5827 5823 5820 5817
5809 5814 5818 5822 5825 5828 5831 5834 5836 5838 5840 5842 5844 5845 5847 5848 5849 5850 5850 5851 5851 5851 5851 5850 5850 5849 5848 5847 5846 5845 5843 5841 5839 5837 5834 5831 5828 5826 5823 5820 5817 5813 5809
5803 5807 5812 5815 5819 5822 5825 5827 5829 5832 5834 5835 5837 5839 5840 5842 5843 5844 5844 5844 5844 5845 5844 5843 5843 5842 5841 5840 5839 5838 5836 5834 5832 5830 5827 5824 5821 5818 5815 5812 5809 5806 5802
5796 5801 5805 5809 5812 5815 5818 5820 5823 5825 5827 5828 5830 5832 5833 5834 5835 5836 5837 5837 5837 5837 5837 5836 5835 5835 5834 5832 5831 5830 5829 5827 5825 5822 5820 5816 5813 5810 5807 5804 5801 5798 5794
5789 5793 5797 5801 5804 5808 5810 5813 5815 5817 5819 5821 5823 5824 5825 5826 5827 5828 5829 5829 5829 5829 5829 5828 5827 5827 5826 5824 5823 5821 5821 5821 5817 5815 5812 5809 5805 5802 5799 5795 5792 5789 5786
5781 5785 5789 5793 5796 5799 5802 5805 5807 5809 5811 5813 5814 5816 5817 5818 5819 5819 5820 5821 5821 5821 5821 5820 5819 5818 5817 5816 5813 5812 5811 5810 5809 5807 5804 5801 5797 5794 5790 5787 5783 5780 5777
5773 5777 5781 5784 5788 5791 5794 5796 5799 5801 5803 5805 5806 5807 5808 5809 5810 5810 5811 5812 5812 5812 5811 5811 5810 5809 5808 5806 5805 5803 5801 5799 5797 5796 5794 5791 5788 5784 5781 5777 5774 5771 5767
5765 5769 5772 5775 5779 5782 5785 5787 5790 5792 5794 5795 5797 5798 5799 5800 5801 5801 5802 5802 5802 5802 5802 5801 5800 5799 5798 5796 5795 5793 5791 5789 5787 5785 5784 5781 5778 5774 5771 5767 5764 5761 5758
5757 5760 5763 5766 5770 5772 5775 5777 5780 5782 5784 5786 5787 5788 5789 5790 5791 5791 5791 5792 5792 5792 5791 5791 5790 5789 5788 5786 5785 5783 5781 5780 5778 5775 5774 5771 5768 5765 5761 5758 5754 5751 5749
Wind_Speed
17 16 14 12 11 10 10 9 7 6 5 5 4 4 4 3 3 2 1 1 2 3 4 4 5 6 7 7 7 8 9 10 11 11 12 13 14 15 15 16 17 17 18
18 17 15 14 12 11 10 9 8 6 5 5 5 4 4 4 3 2 1 1 2 2 3 4 5 5 6 7 7 8 9 10 11 11 12 13 14 15 16 17 17 18 19
19 18 16 15 13 12 10 9 8 7 6 6 5 5 5 4 3 2 2 2 2 3 3 4 4 5 6 6 7 8 9 10 11 12 13 14 15 16 16 17 18 19 19
21 19 17 15 14 13 11 10 9 8 8 7 7 6 5 5 4 3 2 2 2 3 3 4 4 5 6 6 7 8 9 10 11 12 13 14 15 16 17 18 19 19 20
22 20 17 16 14 13 12 11 11 10 9 8 8 7 6 5 4 3 2 2 3 3 3 4 4 5 5 6 7 8 9 10 11 12 13 14 15 17 17 18 19 20 21
23 21 19 17 15 14 14 13 12 11 10 10 9 8 7 6 5 4 3 3 3 3 3 4 4 5 6 7 7 8 10 11 12 13 14 15 16 18 19 20 20 21 22
24 22 19 18 16 15 15 14 14 13 12 11 11 9 8 7 6 5 4 4 4 3 3 4 4 5 6 7 8 9 10 11 13 14 15 17 18 19 20 21 22 22 23
25 23 20 19 18 17 16 16 15 14 13 12 12 11 9 8 7 6 5 4 4 4 4 4 5 6 6 7 9 10 11 13 14 15 17 18 19 20 21 22 23 24 24
27 24 22 20 19 18 18 18 17 16 15 14 13 12 10 9 8 7 6 5 5 5 5 5 6 7 7 9 10 11 13 14 15 17 18 19 21 22 23 24 25 25 26
28 26 24 22 21 20 20 19 18 17 16 15 13 12 11 10 9 8 7 7 6 7 7 7 8 8 9 10 11 13 14 16 17 18 20 21 22 23 25 26 27 27 28
30 28 26 24 23 22 21 21 20 19 18 16 15 13 12 11 10 9 9 9 8 8 9 9 10 10 11 12 13 14 16 17 19 20 21 22 24 25 27 28 29 29 30
32 30 28 26 24 23 23 22 21 20 19 18 17 15 14 13 12 11 11 11 10 10 11 11 12 13 13 14 15 16 17 19 20 22 23 24 26 27 28 30 30 31 31
34 32 29 27 25 25 24 24 23 22 21 20 19 17 16 15 14 13 13 13 12 12 13 13 14 15 15 16 17 18 19 20 22 23 25 26 27 29 30 31 32 33 33
35 33 31 29 27 26 25 25 25 24 24 22 21 20 18 17 16 16 15 15 14 14 15 15 16 16 17 18 19 20 21 23 24 25 27 28 30 31 32 33 33 34 35
37 35 34 32 30 28 27 26 26 26 26 24 23 22 21 20 19 18 18 17 17 17 17 17 18 18 19 20 21 23 24 25 26 27 29 30 32 33 33 34 35 35 36
41 39 37 36 33 31 29 28 28 28 28 27 26 25 23 23 22 21 20 20 20 19 19 20 20 21 21 22 23 25 26 27 28 30 30 32 33 35 35 36 36 37 37
43 41 40 38 36 34 32 31 30 29 29 29 29 28 27 26 25 24 23 23 22 22 22 23 23 23 24 25 26 27 28 29 30 32 33 34 35 36 37 37 38 38 38
44 42 41 39 38 37 35 34 33 32 31 31 31 31 30 29 28 27 26 26 25 25 25 25 26 26 27 27 28 29 30 31 32 34 35 36 37 37 38 39 39 40 40
46 44 43 41 40 39 38 37 36 34 34 33 34 34 33 32 31 30 30 29 29 28 28 28 28 29 29 30 30 31 32 33 34 36 37 38 39 39 40 40 41 41 41
48 46 45 43 42 41 40 39 38 37 36 36 36 36 36 36 35 34 34 33 32 31 31 31 31 32 32 33 33 34 35 36 37 37 38 40 41 41 41 42 43 42 41
48 47 46 45 44 43 42 41 40 39 38 38 38 39 39 38 38 37 37 36 35 35 35 34 35 35 35 36 37 37 37 38 38 39 39 41 42 42 43 43 43 43 42
47 47 48 47 45 44 43 42 41 41 40 40 40 40 41 41 40 40 40 39 39 39 38 38 39 39 39 39 40 40 40 39 40 40 40 41 42 43 44 44 44 43 42
48 47 47 47 48 46 45 45 44 43 42 42 42 43 43 43 43 43 43 43 42 42 42 42 42 42 42 42 43 44 44 43 42 41 42 41 42 43 44 44 44 43 42
47 48 49 48 48 48 48 47 47 46 46 45 45 45 45 45 45 45 45 45 45 45 45 45 45 45 45 44 45 45 46 46 46 44 44 44 44 44 44 44 43 43 42
47 46 48 49 49 49 50 49 49 49 48 48 48 48 48 48 47 47 48 48 48 48 48 48 47 47 47 47 47 47 46 46 46 46 45 45 45 45 44 44 43 43 42
47 48 49 49 49 49 50 50 51 51 50 50 51 50 50 49 49 49 49 50 50 50 49 49 49 49 49 48 48 48 47 47 46 46 45 45 45 45 44 44 44 43 42
Wind_Direction
227 230 232 235 237 239 241 240 238 236 233 231 233 232 229 227 229 234 265 314 348 1 8 10 10 10 8 8 7 6 5 4 4 3 2 1 360 358 356 354 353 352 350
226 230 231 233 233 236 237 237 235 231 225 225 226 228 226 225 228 239 261 300 331 351 0 3 2 2 3 5 5 4 3 3 1 0 359 358 357 355 354 353 351 350 348
226 230 231 233 235 236 237 235 232 228 224 223 222 225 225 226 234 247 267 300 324 340 347 353 355 357 360 0 360 360 359 359 358 357 356 356 354 353 352 351 350 349 347
227 230 232 234 235 235 235 232 229 226 225 224 224 224 225 229 238 250 271 298 318 333 340 345 349 353 355 356 355 356 356 355 355 354 353 352 350 350 349 348 348 346 345
228 230 233 235 236 235 233 231 230 228 226 226 224 223 225 230 239 252 272 292 310 324 333 337 341 344 347 348 349 349 350 350 350 350 349 348 347 347 346 346 345 344 342
228 231 234 237 237 235 233 231 231 229 227 226 225 224 226 230 237 249 265 282 298 313 326 331 333 336 339 340 342 344 345 345 345 346 345 345 344 344 343 343 342 342 341
228 231 234 237 237 236 234 232 232 231 228 227 226 226 229 232 238 246 258 274 289 302 315 324 328 331 332 333 336 338 340 340 341 341 341 342 341 341 340 340 340 339 338
230 231 233 236 238 238 237 234 232 231 229 229 229 229 232 235 239 246 254 267 281 292 304 312 317 321 324 328 331 332 334 335 336 337 338 338 338 338 337 338 337 337 336
231 234 235 237 239 240 239 236 233 232 230 230 232 234 236 238 242 247 256 268 279 286 294 302 308 313 318 322 326 328 331 332 333 334 335 335 335 335 334 334 334 334 333
233 236 238 239 240 241 240 237 235 233 233 233 234 238 240 243 247 253 261 271 280 285 290 297 303 308 313 317 322 325 327 329 330 331 331 332 332 331 331 331 331 331 330
233 237 239 241 241 242 241 239 236 235 235 235 237 241 245 248 253 259 266 272 280 287 291 295 301 306 310 314 318 321 323 324 326 326 327 328 328 328 329 329 329 328 328
232 237 240 242 244 243 242 240 238 237 236 236 238 241 245 250 255 260 267 273 279 284 288 293 298 302 306 309 313 315 318 320 321 322 323 324 325 326 326 326 326 326 326
229 234 240 244 246 245 244 241 239 238 237 237 239 241 244 249 255 261 267 272 277 282 286 291 295 298 302 305 308 310 313 315 316 318 319 321 322 323 323 324 324 324 324
229 234 241 246 248 248 247 244 242 240 239 239 240 243 245 249 254 260 266 271 276 280 284 288 292 296 298 301 304 307 309 311 312 315 316 317 319 320 321 322 322 322 322
232 236 241 245 248 249 249 248 246 243 243 243 243 245 248 251 255 259 264 269 273 277 281 285 289 293 296 298 301 303 305 307 309 311 313 314 316 317 318 319 320 320 320
233 236 241 244 247 250 251 251 249 247 246 246 247 248 250 253 256 260 264 269 272 276 280 283 287 290 293 295 298 301 303 305 306 308 309 311 313 314 315 316 317 318 318
234 237 240 244 248 250 251 252 252 251 250 250 251 252 253 255 258 262 266 269 273 276 279 282 285 288 290 293 295 298 301 303 304 305 307 308 310 311 312 314 315 316 316
236 239 242 245 248 251 252 253 253 253 254 254 254 255 256 258 261 264 267 270 273 276 279 282 285 287 290 292 294 297 299 300 302 303 305 306 308 309 310 312 313 314 314
237 240 243 245 247 249 251 253 253 254 255 256 257 258 259 260 263 266 269 271 273 276 279 282 284 287 290 291 293 296 297 299 300 301 303 305 306 308 309 311 312 312 312
238 240 243 245 248 250 251 253 254 255 256 257 259 260 261 263 265 268 270 271 274 277 280 282 284 287 289 291 293 295 296 297 299 300 302 303 305 306 308 309 310 310 310
239 240 243 245 247 248 250 252 254 255 257 258 259 261 263 265 267 269 271 272 274 277 280 282 284 286 289 290 292 293 295 296 298 299 301 302 304 305 307 308 308 308 308
240 241 243 244 246 247 249 251 253 255 256 258 261 262 264 264 266 269 271 273 275 277 280 282 284 286 288 290 291 292 292 294 295 297 299 300 302 303 305 306 307 306 306
241 243 244 245 246 248 250 251 252 254 257 259 261 263 265 266 268 269 271 273 275 278 280 282 284 285 287 289 291 292 293 294 294 296 297 298 299 301 302 303 304 304 304
243 244 245 247 248 248 250 252 253 254 257 259 262 264 267 268 269 269 271 273 275 278 280 282 283 285 286 288 289 291 292 294 295 296 297 298 299 300 301 302 302 302 302
244 245 247 247 249 250 251 252 254 255 258 260 262 265 267 269 270 271 272 273 275 277 279 280 282 283 285 287 288 289 291 292 293 295 296 297 299 300 301 301 300 300 300
245 247 249 250 251 251 253 254 255 257 259 261 262 265 267 268 270 272 273 274 275 277 278 279 281 282 284 285 286 288 289 291 292 294 295 296 297 298 298 299 298 298 299